STARLINK-11193 [DTC] (60195 NORAD) Tracking and Keplerian Element Data

This shows tracking and keplerian element data for the satellite.

Feedback or suggestion? Click here.




ElementValue
Catalog60195
NameSTARLINK-11193 [DTC]
Epoch Orbit1586
Epoch Day286.06423146
Epoch Year2024
RAAN173.2194
Inclination53.1574
Eccentricity0.0001475
Argument of Perigee113.5451
Mean Anonmoly246.5722
Mean Motion15.69632993
Decay Rate-6.878E-05
L11 60195U 24124N 24286.06423146 -.00006878 00000+0 -52125-4 0 9991
L22 60195 53.1574 173.2194 0001475 113.5451 246.5722 15.69632993 15863



Live tracking and technical data element details for STARLINK-11193 [DTC] (NORAD 60195). STARLINK-11193 [DTC] can be tracked NOW for your location showing map with azimuth and elevation plus other details from your city location.







IsCatalogInMostPopularTable: catalog: 60195, numindb: 12
Update: records affected: 1



GetName: 60195 STARLINK-11193 [DTC]

Hit Count: updated at: Thu, 23 Jan 2025 14:16:34 GMT